Time,TemperatureF,DewpointF,PressureIn,WindDirection,WindDirectionDegrees,WindSpeedMPH,WindSpeedGustMPH,Humidity,HourlyPrecipIn,Conditions,Clouds,dailyrainin,SoftwareType,DateUTC
2013-07-12 00:14:00,79.4,74.0,29.87,SW,234,4.0,-999.0,82,-99.99,,,0.03,weatherlink.com 1.10,2013-07-12 04:14:00,
2013-07-12 00:29:00,79.4,74.0,29.88,SW,233,0.0,-999.0,83,-99.99,,,0.03,weatherlink.com 1.10,2013-07-12 04:29:00,
2013-07-12 00:44:00,79.6,74.0,29.87,SW,215,0.0,-999.0,83,-99.99,,,0.03,weatherlink.com 1.10,2013-07-12 04:44:00,
2013-07-12 00:59:00,79.6,74.0,29.87,SSW,206,0.0,-999.0,83,-99.99,,,0.03,weatherlink.com 1.10,2013-07-12 04:59:00,
2013-07-12 01:14:00,79.4,74.0,29.87,SW,216,6.0,-999.0,82,-99.99,,,0.03,weatherlink.com 1.10,2013-07-12 05:14:00,
2013-07-12 01:29:00,79.6,74.0,29.86,SW,229,0.0,-999.0,83,-99.99,,,0.03,weatherlink.com 1.10,2013-07-12 05:29:00,
2013-07-12 01:44:00,79.6,74.0,29.86,West,277,0.0,-999.0,83,-99.99,,,0.03,weatherlink.com 1.10,2013-07-12 05:44:00,
2013-07-12 01:59:00,79.6,74.0,29.86,WSW,239,6.0,-999.0,82,-99.99,,,0.03,weatherlink.com 1.10,2013-07-12 05:59:00,
2013-07-12 02:14:00,79.6,74.0,29.86,WSW,239,4.0,-999.0,82,-99.99,,,0.03,weatherlink.com 1.10,2013-07-12 06:14:00,
2013-07-12 02:29:00,79.6,74.0,29.85,SSW,209,0.0,-999.0,83,-99.99,,,0.03,weatherlink.com 1.10,2013-07-12 06:29:00,
2013-07-12 02:44:00,79.6,74.0,29.85,SSW,210,0.0,-999.0,84,-99.99,,,0.03,weatherlink.com 1.10,2013-07-12 06:44:00,
2013-07-12 02:59:00,79.6,74.0,29.85,WSW,247,2.0,-999.0,84,-99.99,,,0.03,weatherlink.com 1.10,2013-07-12 06:59:00,
2013-07-12 03:14:00,79.8,75.0,29.85,SW,236,1.0,-999.0,84,-99.99,,,0.03,weatherlink.com 1.10,2013-07-12 07:14:00,
2013-07-12 03:29:00,79.6,74.0,29.84,West,278,0.0,-999.0,84,-99.99,,,0.03,weatherlink.com 1.10,2013-07-12 07:29:00,
2013-07-12 03:44:00,79.6,75.0,29.84,SW,236,4.0,-999.0,85,-99.99,,,0.03,weatherlink.com 1.10,2013-07-12 07:44:00,
2013-07-12 03:59:00,79.6,75.0,29.84,West,277,0.0,-999.0,85,-99.99,,,0.00,weatherlink.com 1.10,2013-07-12 07:59:00,
2013-07-12 04:14:00,78.8,72.0,29.84,West,261,1.0,-999.0,80,-99.99,,,0.00,weatherlink.com 1.10,2013-07-12 08:14:00,
2013-07-12 04:29:00,76.3,70.0,29.84,NNW,335,0.0,-999.0,81,-99.99,,,0.00,weatherlink.com 1.10,2013-07-12 08:29:00,
2013-07-12 04:44:00,75.4,70.0,29.84,North,352,0.0,-999.0,83,-99.99,,,0.00,weatherlink.com 1.10,2013-07-12 08:44:00,
2013-07-12 04:59:00,74.7,70.0,29.83,NE,41,0.0,-999.0,85,-99.99,,,0.00,weatherlink.com 1.10,2013-07-12 08:59:00,
2013-07-12 05:14:00,74.4,70.0,29.84,WNW,289,0.0,-999.0,86,-99.99,,,0.00,weatherlink.com 1.10,2013-07-12 09:14:00,
2013-07-12 05:29:00,74.2,70.0,29.84,WSW,256,0.0,-999.0,87,-99.99,,,0.00,weatherlink.com 1.10,2013-07-12 09:29:00,
2013-07-12 05:44:00,74.2,71.0,29.86,WSW,258,0.0,-999.0,88,-99.99,,,0.01,weatherlink.com 1.10,2013-07-12 09:44:00,
2013-07-12 05:59:00,74.4,71.0,29.86,WSW,253,0.0,-999.0,89,-99.99,,,0.02,weatherlink.com 1.10,2013-07-12 09:59:00,
2013-07-12 06:14:00,74.7,72.0,29.86,SSW,210,0.0,-999.0,90,-99.99,,,0.02,weatherlink.com 1.10,2013-07-12 10:14:00,
2013-07-12 06:29:00,75.3,73.0,29.86,WNW,285,0.0,-999.0,91,-99.99,,,0.04,weatherlink.com 1.10,2013-07-12 10:29:00,
2013-07-12 06:44:00,75.4,73.0,29.86,SW,230,1.0,-999.0,91,-99.99,,,0.08,weatherlink.com 1.10,2013-07-12 10:44:00,
2013-07-12 06:59:00,75.4,73.0,29.86,SSW,212,0.0,-999.0,92,-99.99,,,0.10,weatherlink.com 1.10,2013-07-12 10:59:00,
2013-07-12 07:14:00,75.6,73.0,29.86,West,260,0.0,-999.0,92,-99.99,,,0.10,weatherlink.com 1.10,2013-07-12 11:14:00,
2013-07-12 07:29:00,75.8,73.0,29.86,West,277,0.0,-999.0,92,-99.99,,,0.10,weatherlink.com 1.10,2013-07-12 11:29:00,
2013-07-12 07:44:00,76.1,74.0,29.87,SW,232,0.0,-999.0,92,-99.99,,,0.10,weatherlink.com 1.10,2013-07-12 11:44:00,
2013-07-12 07:59:00,75.6,73.0,29.87,SSW,202,0.0,-999.0,91,-99.99,,,0.10,weatherlink.com 1.10,2013-07-12 11:59:00,
2013-07-12 08:14:00,75.6,73.0,29.87,NW,322,0.0,-999.0,91,-99.99,,,0.11,weatherlink.com 1.10,2013-07-12 12:14:00,
2013-07-12 08:29:00,76.1,74.0,29.87,SW,226,0.0,-999.0,92,-99.99,,,0.11,weatherlink.com 1.10,2013-07-12 12:29:00,
2013-07-12 08:44:00,76.8,74.0,29.87,NNW,332,0.0,-999.0,92,-99.99,,,0.11,weatherlink.com 1.10,2013-07-12 12:44:00,
2013-07-12 08:59:00,77.7,75.0,29.87,WNW,282,0.0,-999.0,92,-99.99,,,0.11,weatherlink.com 1.10,2013-07-12 12:59:00,
2013-07-12 09:14:00,77.9,75.0,29.88,SW,224,0.0,-999.0,91,-99.99,,,0.11,weatherlink.com 1.10,2013-07-12 13:14:00,
2013-07-12 09:29:00,78.1,75.0,29.88,East,99,0.0,-999.0,90,-99.99,,,0.11,weatherlink.com 1.10,2013-07-12 13:29:00,
2013-07-12 09:44:00,78.5,75.0,29.88,WSW,247,0.0,-999.0,89,-99.99,,,0.11,weatherlink.com 1.10,2013-07-12 13:44:00,
2013-07-12 09:59:00,79.4,76.0,29.88,SW,215,0.0,-999.0,88,-99.99,,,0.11,weatherlink.com 1.10,2013-07-12 13:59:00,
2013-07-12 10:14:00,79.9,75.0,29.87,WSW,248,0.0,-999.0,86,-99.99,,,0.11,weatherlink.com 1.10,2013-07-12 14:14:00,
2013-07-12 10:29:00,79.8,75.0,29.87,NE,48,0.0,-999.0,85,-99.99,,,0.11,weatherlink.com 1.10,2013-07-12 14:29:00,
2013-07-12 10:44:00,78.6,75.0,29.87,North,357,0.0,-999.0,87,-99.99,,,0.15,weatherlink.com 1.10,2013-07-12 14:44:00,
2013-07-12 10:59:00,77.6,74.0,29.89,West,272,0.0,-999.0,88,-99.99,,,0.23,weatherlink.com 1.10,2013-07-12 14:59:00,
2013-07-12 11:14:00,74.6,72.0,29.89,NNW,335,0.0,-999.0,90,-99.99,,,0.79,weatherlink.com 1.10,2013-07-12 15:14:00,
2013-07-12 11:29:00,74.4,72.0,29.88,NNW,335,0.0,-999.0,92,-99.99,,,0.91,weatherlink.com 1.10,2013-07-12 15:29:00,
2013-07-12 11:44:00,74.7,72.0,29.90,SW,229,0.0,-999.0,92,-99.99,,,0.91,weatherlink.com 1.10,2013-07-12 15:44:00,
2013-07-12 11:59:00,74.6,72.0,29.90,WNW,291,0.0,-999.0,92,-99.99,,,0.93,weatherlink.com 1.10,2013-07-12 15:59:00,
2013-07-12 12:14:00,74.4,72.0,29.90,WNW,291,0.0,-999.0,93,-99.99,,,0.98,weatherlink.com 1.10,2013-07-12 16:14:00,
2013-07-12 12:29:00,75.6,74.0,29.90,WNW,291,0.0,-999.0,94,-99.99,,,0.98,weatherlink.com 1.10,2013-07-12 16:29:00,
2013-07-12 12:44:00,76.0,74.0,29.89,WNW,291,0.0,-999.0,93,-99.99,,,0.98,weatherlink.com 1.10,2013-07-12 16:44:00,
2013-07-12 13:14:00,75.8,73.0,29.89,WSW,251,0.0,-999.0,91,-99.99,,,1.09,weatherlink.com 1.10,2013-07-12 17:14:00,
2013-07-12 13:44:00,73.9,72.0,29.90,South,182,0.0,-999.0,92,-99.99,,,1.29,weatherlink.com 1.10,2013-07-12 17:44:00,
2013-07-12 13:59:00,73.3,71.0,29.90,South,182,0.0,-999.0,93,-99.99,,,1.48,weatherlink.com 1.10,2013-07-12 17:59:00,
2013-07-12 14:14:00,73.5,72.0,29.89,South,182,0.0,-999.0,94,-99.99,,,1.50,weatherlink.com 1.10,2013-07-12 18:14:00,
2013-07-12 14:29:00,73.7,72.0,29.89,South,182,0.0,-999.0,94,-99.99,,,1.58,weatherlink.com 1.10,2013-07-12 18:29:00,
2013-07-12 14:59:00,72.7,71.0,29.90,SSE,160,0.0,-999.0,94,-99.99,,,1.91,weatherlink.com 1.10,2013-07-12 18:59:00,
2013-07-12 15:44:00,73.7,72.0,29.89,ENE,62,0.0,-999.0,95,-99.99,,,1.97,weatherlink.com 1.10,2013-07-12 19:44:00,
2013-07-12 15:59:00,74.0,73.0,29.88,SSE,150,0.0,-999.0,95,-99.99,,,1.97,weatherlink.com 1.10,2013-07-12 19:59:00,
2013-07-12 16:14:00,74.2,73.0,29.89,SE,124,0.0,-999.0,95,-99.99,,,1.97,weatherlink.com 1.10,2013-07-12 20:14:00,
2013-07-12 16:29:00,74.2,72.0,29.88,SE,144,0.0,-999.0,93,-99.99,,,1.97,weatherlink.com 1.10,2013-07-12 20:29:00,
2013-07-12 16:44:00,74.4,72.0,29.89,SSE,151,0.0,-999.0,92,-99.99,,,1.97,weatherlink.com 1.10,2013-07-12 20:44:00,
2013-07-12 16:59:00,74.7,72.0,29.89,SSE,157,0.0,-999.0,91,-99.99,,,1.97,weatherlink.com 1.10,2013-07-12 20:59:00,
2013-07-12 17:30:00,75.3,72.0,29.90,SSE,168,0.0,-999.0,88,-99.99,,,1.97,weatherlink.com 1.10,2013-07-12 21:30:00,
2013-07-12 17:44:00,75.3,72.0,29.89,SSE,162,0.0,-999.0,88,-99.99,,,1.97,weatherlink.com 1.10,2013-07-12 21:44:00,
2013-07-12 17:59:00,75.6,72.0,29.89,SSE,154,0.0,-999.0,88,-99.99,,,1.97,weatherlink.com 1.10,2013-07-12 21:59:00,
2013-07-12 18:14:00,75.6,72.0,29.89,SSE,154,0.0,-999.0,87,-99.99,,,1.97,weatherlink.com 1.10,2013-07-12 22:14:00,
2013-07-12 19:14:00,75.6,71.0,29.89,SSE,148,0.0,-999.0,86,-99.99,,,1.97,weatherlink.com 1.10,2013-07-12 23:14:00,
2013-07-12 19:29:00,75.4,71.0,29.89,South,172,0.0,-999.0,85,-99.99,,,1.97,weatherlink.com 1.10,2013-07-12 23:29:00,
2013-07-12 19:44:00,75.4,71.0,29.89,SSE,168,0.0,-999.0,85,-99.99,,,1.97,weatherlink.com 1.10,2013-07-12 23:44:00,
2013-07-12 19:59:00,75.4,71.0,29.89,South,172,0.0,-999.0,86,-99.99,,,1.97,weatherlink.com 1.10,2013-07-12 23:59:00,
2013-07-12 20:15:00,75.8,71.0,29.89,SSE,157,0.0,-999.0,86,-99.99,,,1.97,weatherlink.com 1.10,2013-07-13 00:15:00,
2013-07-12 20:30:00,76.0,72.0,29.89,SE,128,0.0,-999.0,86,-99.99,,,1.97,weatherlink.com 1.10,2013-07-13 00:30:00,
2013-07-12 21:00:00,76.5,71.0,29.90,SSE,155,0.0,-999.0,84,-99.99,,,1.97,weatherlink.com 1.10,2013-07-13 01:00:00,
2013-07-12 21:15:00,76.7,72.0,29.90,SE,140,0.0,-999.0,84,-99.99,,,1.97,weatherlink.com 1.10,2013-07-13 01:15:00,
2013-07-12 21:30:00,76.7,72.0,29.91,ESE,121,0.0,-999.0,84,-99.99,,,1.97,weatherlink.com 1.10,2013-07-13 01:30:00,
2013-07-12 22:00:00,76.7,72.0,29.93,SSE,168,0.0,-999.0,85,-99.99,,,1.97,weatherlink.com 1.10,2013-07-13 02:00:00,
2013-07-12 22:15:00,76.5,72.0,29.93,SSE,168,0.0,-999.0,86,-99.99,,,1.97,weatherlink.com 1.10,2013-07-13 02:15:00,
2013-07-12 22:45:00,75.4,72.0,29.94,SSE,168,0.0,-999.0,88,-99.99,,,1.97,weatherlink.com 1.10,2013-07-13 02:45:00,
2013-07-12 23:00:00,75.1,71.0,29.94,SSE,168,0.0,-999.0,88,-99.99,,,1.97,weatherlink.com 1.10,2013-07-13 03:00:00,
2013-07-12 23:15:00,74.9,72.0,29.94,SSE,168,0.0,-999.0,89,-99.99,,,1.97,weatherlink.com 1.10,2013-07-13 03:15:00,
2013-07-12 23:30:00,74.9,72.0,29.94,SSE,168,0.0,-999.0,89,-99.99,,,1.97,weatherlink.com 1.10,2013-07-13 03:30:00,
2013-07-12 23:45:00,74.6,71.0,29.93,SSE,168,0.0,-999.0,89,-99.99,,,1.97,weatherlink.com 1.10,2013-07-13 03:45:00,